Location: 5810 Zion Rd, Cleves, OH 45002, USA
(39.1922°N, 84.7113°W)
Time: 08:00:34
(UTC-05:00)

Vanguard 3 - Pass Details

Date: 15 December 2019
Orbit: 507 x 3263 km, 33.4° (Epoch: 24 January)

Event Time Altitude Azimuth Distance (km) Brightness Sun altitude
Rises 07:49:11 0° 245° (WSW) 3,252 9.9 -1.1°
Reaches altitude 10° 07:51:13 10° 240° (WSW) 2,538 9.4 -0.8°
Maximum altitude 07:57:07 53° 165° (SSE) 1,501 9.0 0.2°
Drops below altitude 10° 08:07:34 10° 93° (E) 4,398 12.1 1.9°
Sets 08:12:13 0° 90° (E) 5,864 12.6 2.7°
